Le nostre stazioni meteo in Italia

Pubblicità
Il mio iltempo24.it
Lecce, Italia (16332): Temperatura & dewpoint: 09.10.2019 12:00:00 - 15.10.2019 12:00:00 (CEST)Lecce, Italia (16332): velocità del vento: 09.10.2019 12:00:00 - 15.10.2019 12:00:00 (CEST)Lecce, Italia (16332): direzione del vento: 09.10.2019 12:00:00 - 15.10.2019 12:00:00 (CEST)Lecce, Italia (16332): reduced air pressure: 09.10.2019 12:00:00 - 15.10.2019 12:00:00 (CEST)Lecce, Italia (16332): visibility: 09.10.2019 12:00:00 - 15.10.2019 12:00:00 (CEST)
Data & Tempo tt [°C] td [°C] ff [km/h] ff [kn] dd ppp [hPa] vv [km]
15.10.2019 12:00:00 - - - - - - -
15.10.2019 11:00:00 23,4 18,7 4 2 N 1019,8 10
15.10.2019 10:00:00 22,0 21,0 2 1 - - 10
15.10.2019 09:00:00 17,0 17,0 2 1 - - 1,2
15.10.2019 08:00:00 12,8 12,0 0 0 N 1019,8 0,3
15.10.2019 07:00:00 13,0 12,0 0 0 N - 0,3
15.10.2019 06:00:00 13,0 12,0 0 0 N - 0,3
15.10.2019 05:00:00 12,6 11,8 0 0 N 1019,9 0,3
15.10.2019 04:00:00 13,0 12,0 0 0 N - 0,5
15.10.2019 03:00:00 13,0 12,0 0 0 N - 5
15.10.2019 02:00:00 14,0 13,2 0 0 N 1020,5 10
15.10.2019 01:00:00 15,0 14,0 0 0 N - 10
15.10.2019 00:00:00 15,0 14,0 0 0 N - 10
14.10.2019 23:00:00 15,8 15,0 0 0 N 1020,7 10
14.10.2019 22:00:00 16,0 15,0 0 0 N - 10
14.10.2019 21:00:00 17,0 16,0 2 1 S - 10
14.10.2019 20:00:00 19,2 18,0 5 3 NNE 1020,7 10
14.10.2019 19:00:00 21,0 19,0 9 5 NNE - 10
14.10.2019 18:00:00 23,0 18,0 13 7 NE - 10
14.10.2019 17:00:00 23,8 18,0 15 8 NNE 1020,1 10
14.10.2019 16:00:00 25,0 18,0 11 6 N - 10
14.10.2019 15:00:00 25,0 19,0 13 7 N - 10
14.10.2019 14:00:00 25,6 18,3 13 7 NNE 1021,1 10
14.10.2019 13:00:00 25,0 17,0 13 7 N - 10
14.10.2019 12:00:00 25,0 18,0 13 7 NNE - 10
14.10.2019 11:00:00 22,0 16,3 11 6 N 1022,3 10
14.10.2019 10:00:00 21,0 17,0 15 8 N - 9
14.10.2019 09:00:00 18,0 17,0 5 3 N - 7
14.10.2019 08:00:00 10,0 9,2 4 2 N 1022,3 0,8
14.10.2019 07:00:00 10,0 9,0 0 0 N - 0,8
14.10.2019 06:00:00 11,0 10,0 2 1 - - 0,8
14.10.2019 05:00:00 11,0 10,1 4 2 N 1022,8 3,0
14.10.2019 04:00:00 12,0 11,0 0 0 N - 5
14.10.2019 03:00:00 12,0 11,0 2 1 - - 6
14.10.2019 02:00:00 12,2 11,3 0 0 N 1023,2 7
14.10.2019 01:00:00 13,0 12,0 2 1 - - 7
14.10.2019 00:00:00 14,0 12,0 2 1 - - 7
13.10.2019 23:00:00 14,0 12,9 4 2 N 1023,3 7
13.10.2019 22:00:00 15,0 14,0 2 1 - - 7
13.10.2019 21:00:00 16,0 14,0 2 1 - - 10
13.10.2019 20:00:00 17,2 13,7 0 0 N 1023,1 10
13.10.2019 19:00:00 20,0 14,0 8 4 NNE - 10
13.10.2019 18:00:00 22,0 13,0 11 6 NE - 10
13.10.2019 17:00:00 23,6 13,2 15 8 NNE 1022,6 10
13.10.2019 16:00:00 25,0 13,0 15 8 NNE - 10
13.10.2019 15:00:00 25,0 13,0 15 8 NNE - 10
13.10.2019 14:00:00 25,6 13,5 11 6 NE 1022,9 10
13.10.2019 13:00:00 25,0 13,0 13 7 NNE - 10
13.10.2019 12:00:00 25,0 11,0 13 7 NE - 10
13.10.2019 11:00:00 23,6 15,4 11 6 NNE 1023,1 10
13.10.2019 10:00:00 17,0 14,0 11 6 N - 10
13.10.2019 09:00:00 16,0 15,0 4 2 NNO - 6
13.10.2019 08:00:00 12,6 11,7 4 2 N 1023,3 2,0
13.10.2019 07:00:00 11,0 10,0 2 1 - - 0,7
13.10.2019 06:00:00 12,0 11,0 2 1 - - 1,2
13.10.2019 05:00:00 12,0 11,1 2 1 - 1022,8 1,0
13.10.2019 04:00:00 12,0 11,0 2 1 - - 1,2
13.10.2019 03:00:00 13,0 12,0 4 2 - - 2,0
13.10.2019 02:00:00 13,2 12,2 4 2 N 1023,3 2,5
13.10.2019 01:00:00 14,0 13,0 2 1 - - 3,0
13.10.2019 00:00:00 15,0 14,0 2 1 - - 10
12.10.2019 23:00:00 15,2 14,1 4 2 N 1023,7 10
12.10.2019 22:00:00 16,0 15,0 4 2 - - 10
12.10.2019 21:00:00 17,0 16,0 2 1 - - 10
12.10.2019 20:00:00 18,4 16,2 4 2 N 1023,6 10
12.10.2019 19:00:00 20,0 18,0 8 4 NE - 10
12.10.2019 18:00:00 23,0 17,0 11 6 NNE - 10
12.10.2019 17:00:00 23,8 17,3 13 7 NE 1023,2 10
12.10.2019 16:00:00 24,0 18,0 15 8 NNE - 10
12.10.2019 15:00:00 25,0 19,0 13 7 NNE - 10
12.10.2019 14:00:00 25,0 18,7 13 7 NNE 1023,7 10
12.10.2019 13:00:00 24,0 18,0 15 8 NNE - 10
12.10.2019 12:00:00 24,0 18,0 13 7 NNE - 10
12.10.2019 11:00:00 23,8 19,7 15 8 N 1023,6 10
12.10.2019 10:00:00 21,0 20,0 13 7 N - 10
12.10.2019 09:00:00 19,0 18,0 11 6 NNO - 7
12.10.2019 08:00:00 16,8 15,8 5 3 N 1022,8 4,0
12.10.2019 07:00:00 15,0 14,0 8 4 NNO - 1,0
12.10.2019 06:00:00 15,0 14,0 2 1 - - 1,5
12.10.2019 05:00:00 15,8 14,8 5 3 NNO 1022,5 2,5
12.10.2019 04:00:00 16,0 15,0 5 3 NO - 2,0
12.10.2019 03:00:00 17,0 16,0 5 3 NNO - 3,0
12.10.2019 02:00:00 16,8 15,8 8 4 NO 1022,3 5
12.10.2019 01:00:00 18,0 17,0 5 3 N - 8
12.10.2019 00:00:00 18,0 17,0 8 4 NNO - 10
11.10.2019 23:00:00 18,0 16,9 5 3 NNO 1021,8 10
11.10.2019 22:00:00 19,0 18,0 4 2 N - 10
11.10.2019 21:00:00 20,0 19,0 5 3 N - 10
11.10.2019 20:00:00 20,0 18,7 8 4 NNO 1021,4 10
11.10.2019 19:00:00 21,0 20,0 13 7 N - 10
11.10.2019 18:00:00 22,0 20,0 15 8 N - 10
11.10.2019 17:00:00 24,0 20,9 18 10 N 1020,4 10
11.10.2019 16:00:00 25,0 20,0 13 7 N - 10
11.10.2019 15:00:00 24,0 19,0 15 8 N - 10
11.10.2019 14:00:00 26,2 19,8 13 7 NNO 1020,8 10
11.10.2019 13:00:00 24,0 20,0 15 8 N - 10
11.10.2019 12:00:00 24,0 20,0 13 7 N - 10
11.10.2019 11:00:00 24,0 19,9 13 7 N 1021,2 10
11.10.2019 10:00:00 22,0 19,0 16 9 N - 10
11.10.2019 09:00:00 19,0 16,0 9 5 N - 10
11.10.2019 08:00:00 17,6 16,5 13 7 NNO 1019,4 8
11.10.2019 07:00:00 18,0 17,0 5 3 NNO - 8
11.10.2019 06:00:00 17,0 15,0 8 4 NNO - 6
11.10.2019 05:00:00 15,8 14,7 4 2 NNO 1018,0 3,2
11.10.2019 04:00:00 17,0 16,0 2 1 N - 10
11.10.2019 03:00:00 19,0 18,0 4 2 ESE - 10
11.10.2019 02:00:00 19,4 18,2 4 2 SE 1017,6 10
11.10.2019 01:00:00 19,0 18,0 5 3 ESE - 10
11.10.2019 00:00:00 20,0 19,0 8 4 SE - 10
10.10.2019 23:00:00 19,8 18,6 9 5 SE 1016,9 10
10.10.2019 22:00:00 20,0 19,0 9 5 SE - 10
10.10.2019 21:00:00 21,0 20,0 11 6 SE - 10
10.10.2019 20:00:00 21,0 19,3 9 5 SE 1016,1 10
10.10.2019 19:00:00 22,0 20,0 15 8 SSE - 10
10.10.2019 18:00:00 24,0 20,0 13 7 S - 10
10.10.2019 17:00:00 25,4 20,9 13 7 S 1015,6 10
10.10.2019 16:00:00 26,0 22,0 16 9 SSE - 10
10.10.2019 15:00:00 25,0 22,0 21 11 SSE - 10
10.10.2019 14:00:00 25,8 20,4 21 11 S 1016,7 10
10.10.2019 13:00:00 26,0 19,0 18 10 S - 10
10.10.2019 12:00:00 27,0 18,0 22 12 SSE - 10
10.10.2019 11:00:00 23,8 19,1 11 6 SSE 1017,9 10
10.10.2019 10:00:00 21,0 19,0 11 6 SSE - 10
10.10.2019 09:00:00 19,0 18,0 11 6 SE - 10
10.10.2019 08:00:00 16,2 15,1 8 4 ESE 1017,4 8
10.10.2019 07:00:00 16,0 15,0 5 3 E - 8
10.10.2019 06:00:00 15,0 14,0 0 0 N - 10
10.10.2019 05:00:00 15,8 14,8 0 0 N 1017,6 10
10.10.2019 04:00:00 16,0 15,0 0 0 N - 10
10.10.2019 03:00:00 16,0 15,0 4 2 ESE - 10
10.10.2019 02:00:00 16,4 15,4 4 2 SE 1018,7 10
10.10.2019 01:00:00 18,0 17,0 11 6 SSE - 10
10.10.2019 00:00:00 18,0 17,0 11 6 SSE - 10
09.10.2019 23:00:00 17,8 16,8 5 3 SSE 1018,9 10
09.10.2019 22:00:00 19,0 18,0 8 4 SE - 10
09.10.2019 21:00:00 20,0 19,0 8 4 SE - 10
09.10.2019 20:00:00 20,8 19,5 11 6 SSE 1018,8 10
09.10.2019 19:00:00 22,0 20,0 11 6 S - 10
09.10.2019 18:00:00 - - - - - - -
09.10.2019 17:00:00 25,2 20,2 16 9 SSO 1018,8 10
09.10.2019 16:00:00 26,0 19,0 18 10 S - 10
09.10.2019 15:00:00 25,0 19,0 16 9 S - 10
09.10.2019 14:00:00 26,2 19,4 21 11 S 1020,0 10
09.10.2019 13:00:00 26,0 17,0 15 8 S - 10
09.10.2019 12:00:00 26,0 19,0 18 10 SSE - 10

tt = Temperatura
td = dewpoint
ff = velocità del vento
dd = direzione del vento
ppp = reduced air pressure
vv = visibility

Stazioni seguenti

WeatherPro
AMSI
MeteoEarth